Lapse_Rate
9.7 6.6 1.2 1.8 2.3 2.4 2.5 2.7 2.8 2.9 3.4 3.6 3.5 3.4 3.5 3.5 3.4 3.5 3.6 3.8 4.1 4.8 5.1 5.1 5.1 5.2 5.2 4.6 4.2 4.5 4.5 4.6 4.7 4.9 5.2 5.4 5.5 5.8 5.8 6.1 7.4 7.0 5.2
9.9 6.4 1.4 2.1 2.5 2.5 2.6 2.6 2.9 3.1 3.3 3.6 3.4 3.5 3.5 3.5 3.4 3.6 3.7 3.8 4.1 4.5 4.9 5.2 5.0 5.0 4.8 4.2 3.9 4.3 4.3 4.7 5.0 5.0 5.2 5.3 5.0 6.1 6.4 6.2 7.2 5.9 5.7
9.9 8.3 3.8 1.9 2.4 2.6 3.1 2.8 2.9 3.4 3.1 3.1 3.4 3.5 3.7 3.7 3.6 3.5 3.7 4.0 4.2 4.3 4.5 4.7 4.8 4.8 4.6 4.2 3.9 4.1 4.3 4.7 5.1 4.9 5.9 9.5 7.8 5.7 6.1 6.0 6.2 6.1 6.1
9.9 9.5 6.6 2.1 2.4 2.5 3.0 3.2 3.1 3.3 3.2 2.9 2.9 3.4 3.6 3.7 3.7 4.0 3.9 3.9 4.2 4.4 4.5 4.6 4.7 4.8 4.2 3.9 3.8 3.9 4.3 4.7 5.4 5.9 8.0 9.7 9.5 5.8 6.4 6.4 6.2 6.4 6.9
9.9 9.7 9.0 2.3 2.5 2.7 2.8 3.2 3.4 3.3 3.1 3.0 3.0 3.1 3.6 3.7 3.8 3.9 3.9 4.0 4.3 4.4 4.5 4.9 4.9 4.4 3.4 3.5 3.6 3.7 4.2 4.9 5.4 5.6 9.8 9.7 9.6 4.5 5.4 6.5 6.7 6.1 6.8
9.9 9.8 4.1 2.7 2.2 2.5 2.8 3.3 3.5 3.3 3.3 3.1 3.2 3.3 3.4 3.5 3.7 3.7 3.9 4.1 4.4 4.7 4.8 4.9 4.8 4.0 2.8 3.0 3.4 3.8 4.4 5.1 5.2 9.7 9.6 8.8 9.3 4.0 4.6 6.2 6.6 6.1 5.7
9.8 9.7 5.8 3.2 2.5 2.8 3.2 3.4 3.5 3.4 3.3 3.4 3.5 3.3 3.3 3.3 3.5 3.6 3.9 4.3 4.4 4.7 4.7 4.7 4.3 3.6 2.8 2.9 3.3 3.9 4.7 5.1 6.2 9.8 9.7 9.6 5.4 3.8 4.1 3.8 4.8 5.4 5.6
9.7 9.7 5.0 2.2 2.5 2.9 3.1 3.3 3.2 3.2 3.2 3.3 3.5 3.4 3.3 3.5 3.5 3.6 4.2 5.0 5.0 5.0 4.2 3.9 3.8 3.7 3.3 3.1 3.3 3.8 4.7 5.3 8.8 9.7 9.8 9.4 3.4 3.3 3.2 3.6 3.5 3.8 3.9
9.0 8.9 3.1 2.3 2.9 2.3 2.8 3.1 3.3 3.4 3.2 3.2 3.2 3.3 3.3 3.5 3.8 4.0 4.4 4.7 4.4 4.9 3.8 3.6 3.7 4.1 3.5 3.7 3.2 3.7 4.7 5.2 6.2 9.8 9.8 9.1 2.8 3.0 2.9 3.1 3.3 3.1 3.2
7.4 7.1 5.9 2.6 3.0 4.6 4.7 3.1 3.3 3.4 3.3 3.3 3.2 3.1 3.3 3.5 4.0 4.0 4.1 4.2 4.2 4.7 3.8 3.5 3.9 4.2 3.6 3.0 3.1 3.8 4.9 6.0 8.3 9.8 9.6 6.1 3.4 3.0 2.8 2.8 2.9 2.9 3.4
6.7 6.4 7.2 4.5 3.3 5.5 7.4 4.5 3.0 3.6 3.7 3.6 3.8 3.5 3.8 6.1 5.4 4.9 5.9 4.1 4.3 4.3 3.8 3.7 3.6 3.2 3.2 2.9 3.3 4.1 5.1 8.7 9.7 9.7 8.4 4.6 3.8 3.6 3.0 2.7 2.6 2.8 2.9
8.8 8.1 8.1 7.8 7.0 5.7 9.5 9.0 6.5 6.8 6.2 6.3 6.7 6.2 6.5 9.0 9.4 8.3 6.7 5.3 4.5 4.2 3.9 3.6 3.1 2.8 3.5 6.8 5.5 4.3 7.0 9.5 9.7 9.7 6.6 4.6 4.2 4.2 3.4 2.8 2.6 2.6 2.6
9.2 9.5 9.6 9.5 9.3 7.3 9.5 9.6 9.2 9.3 9.2 9.1 9.2 9.4 8.8 9.6 8.7 8.3 6.1 5.2 6.0 4.4 5.8 4.0 3.7 5.0 6.2 9.6 9.6 7.7 8.6 9.7 9.6 9.7 5.3 4.9 4.9 5.3 5.0 4.2 3.3 2.9 2.6
9.1 9.2 9.6 9.7 9.2 8.7 9.3 10.0 9.8 9.9 9.7 9.7 9.5 9.5 9.6 9.6 8.8 8.2 7.3 6.5 6.2 8.1 9.2 7.9 7.6 6.9 9.0 9.6 9.7 9.6 9.6 9.7 9.7 9.5 5.9 5.3 5.3 6.6 6.3 6.2 5.2 4.7 3.7
9.1 9.3 9.5 9.6 9.5 7.9 7.0 9.9 9.8 9.8 10.0 9.7 9.6 9.5 9.5 8.6 8.2 8.5 8.3 8.2 9.0 9.1 9.5 9.7 9.7 9.5 9.7 9.7 9.7 9.7 9.7 9.6 9.7 9.7 8.1 5.6 5.9 7.2 7.8 7.9 6.9 6.9 5.6
9.2 9.1 9.5 9.5 9.6 9.2 7.8 7.8 9.6 9.7 9.8 9.7 9.6 8.7 7.6 7.9 9.3 9.2 5.6 7.5 9.6 9.6 9.5 9.7 9.9 9.9 9.9 9.7 9.8 9.6 9.7 9.7 9.7 9.7 9.2 7.2 6.4 7.4 7.7 8.2 8.1 7.7 6.7
9.4 9.4 9.4 9.5 9.6 9.1 8.5 7.4 8.3 9.8 9.7 9.8 9.1 7.7 6.8 7.6 9.2 9.3 8.9 8.0 9.5 9.2 8.8 9.6 9.9 9.7 9.8 9.8 9.3 9.7 9.7 9.6 9.7 9.7 9.6 8.4 7.1 7.5 7.7 8.0 8.4 8.2 7.3
9.4 9.3 9.5 9.6 9.5 7.6 7.8 8.4 8.5 9.3 9.5 9.5 9.1 8.0 7.2 7.3 8.0 9.0 9.6 9.5 9.5 9.6 9.0 9.6 9.8 9.7 9.5 9.0 9.5 9.5 9.7 9.7 9.6 9.7 9.7 9.3 9.0 9.0 7.4 8.0 7.7 7.5 7.6
9.4 9.3 9.1 8.5 7.9 8.4 6.9 6.6 6.6 6.8 7.2 7.3 8.5 8.1 6.9 6.6 7.2 7.4 8.6 9.6 9.3 9.5 8.7 9.4 9.7 9.2 9.1 9.1 9.1 9.4 9.7 9.8 9.8 9.7 9.7 9.7 8.9 9.4 9.2 7.2 6.8 6.5 5.9
9.3 9.4 9.4 9.6 9.4 9.0 8.3 7.7 7.0 6.0 6.2 6.2 6.7 6.3 6.0 5.7 6.0 6.9 7.3 8.0 8.6 7.8 8.0 9.4 9.2 8.5 9.2 8.7 9.4 9.4 9.5 9.7 9.9 9.9 9.9 9.7 9.1 9.1 9.6 8.0 6.3 7.3 6.7
9.2 9.3 9.3 9.3 9.4 9.5 9.4 9.0 8.7 6.6 6.4 7.0 7.7 7.0 6.1 6.3 5.8 5.8 6.1 7.2 7.4 7.3 7.6 8.3 8.3 8.7 7.9 9.0 9.3 9.1 9.3 9.5 9.3 9.8 10.1 10.1 9.9 9.7 9.7 8.9 9.0 9.6 8.5
9.2 9.3 9.4 9.4 9.4 9.4 9.6 9.5 8.8 9.2 8.9 9.2 9.0 6.5 6.4 5.7 5.1 4.9 5.4 5.2 5.7 6.8 6.3 7.0 6.6 6.7 8.6 9.3 8.7 8.9 8.1 8.8 9.5 9.4 9.1 9.4 9.2 9.8 9.9 9.5 9.6 9.7 9.5
9.1 9.2 9.3 9.4 9.5 8.7 7.3 9.6 9.5 9.5 9.2 8.4 6.6 6.1 7.2 7.1 6.8 5.3 5.3 5.0 5.1 5.2 5.4 5.5 6.3 5.7 6.6 8.1 8.5 8.1 7.8 7.7 8.5 9.3 9.3 9.6 9.3 9.2 9.9 9.7 9.7 9.8 9.7
9.1 9.3 9.4 9.4 9.5 9.4 8.2 9.2 9.0 9.1 8.9 9.2 9.4 8.9 7.2 6.5 5.4 4.6 4.9 4.9 5.0 5.1 5.0 5.3 4.7 5.1 5.4 6.1 7.0 8.0 7.6 7.0 7.1 7.7 9.3 9.4 9.6 9.0 9.2 9.8 9.8 9.8 9.7
9.2 9.2 9.3 9.4 9.5 9.5 9.1 8.0 8.4 9.0 9.2 9.4 9.4 9.3 9.5 9.6 9.6 8.8 7.4 6.1 4.9 4.8 5.1 4.7 3.9 3.9 3.6 5.5 6.0 5.8 6.2 6.0 5.0 5.9 7.7 8.7 9.3 9.6 9.7 9.3 9.7 9.5 9.6
9.1 9.2 9.3 9.3 9.4 9.5 9.5 9.4 9.2 8.8 8.9 9.0 9.1 9.1 9.3 9.4 9.6 9.4 9.0 7.7 7.3 5.2 4.9 4.7 3.5 3.8 3.3 3.8 4.6 5.2 6.4 6.6 5.1 5.0 5.3 7.1 8.0 8.0 8.4 8.8 9.2 9.3 9.5
Wind_Speed
5 22 17 13 13 13 12 17 20 21 18 15 15 15 15 16 15 14 13 13 14 14 14 14 13 13 15 15 16 17 16 16 16 15 13 12 10 8 8 5 8 15 14
9 23 17 14 13 13 12 16 18 20 21 18 17 15 15 15 15 14 13 13 14 15 14 13 13 13 14 15 16 15 15 14 13 12 14 15 12 7 7 15 18 12 12
8 22 21 16 16 14 14 15 18 18 21 21 17 17 15 15 14 14 14 13 13 14 14 13 12 13 14 14 15 14 13 12 9 10 14 5 14 11 9 12 12 9 12
7 19 22 14 16 16 15 16 18 19 20 21 21 17 16 16 15 13 13 13 12 13 13 13 13 13 14 13 14 12 10 8 7 9 10 10 13 11 13 13 9 8 11
9 17 20 18 16 15 15 15 16 18 19 20 20 20 16 16 15 14 12 12 12 13 12 12 12 13 15 13 12 11 9 7 9 11 6 8 12 12 11 10 13 15 11
10 15 25 20 15 15 15 14 13 15 16 17 17 18 18 16 15 14 12 12 11 10 11 12 12 11 15 14 12 10 10 10 11 6 6 8 11 10 12 12 15 17 15
11 14 19 17 11 13 13 13 12 13 14 14 14 15 15 16 16 14 14 14 12 10 9 9 10 11 14 15 12 10 9 9 12 5 7 10 10 9 10 12 13 15 14
10 14 15 17 13 13 15 16 17 15 15 15 14 14 14 14 14 15 15 14 12 11 9 9 10 13 14 14 11 10 8 11 7 2 6 13 9 8 7 7 9 13 12
10 11 16 19 19 16 17 18 17 16 17 17 17 16 15 15 14 15 16 16 13 12 7 8 13 12 14 13 10 11 9 11 14 4 5 11 9 7 7 6 7 8 10
9 10 14 17 18 19 17 17 19 18 18 18 18 18 18 17 16 15 14 14 14 11 8 11 12 13 11 12 12 11 9 11 14 4 5 16 11 8 8 7 7 7 7
9 11 12 14 14 18 19 18 16 16 16 16 16 17 18 17 18 18 19 18 15 13 10 13 13 13 12 11 12 12 11 13 4 7 13 16 10 10 9 8 8 9 9
11 12 11 12 13 14 17 18 18 18 17 17 18 18 19 19 17 17 15 19 16 14 10 14 15 15 16 13 12 11 13 11 7 4 17 15 9 9 9 9 9 9 10
11 9 11 11 12 11 10 13 14 16 16 18 21 20 19 17 13 14 13 13 12 12 13 15 14 15 17 14 14 13 14 5 11 6 17 15 10 10 9 9 9 10 10
4 10 10 12 11 10 13 8 10 9 15 13 19 19 15 12 11 11 10 11 13 15 15 16 15 16 16 16 14 13 14 9 8 6 15 14 10 10 10 10 9 9 10
6 5 9 11 13 11 13 9 9 10 9 14 16 18 17 7 9 12 13 15 16 18 16 13 14 15 16 15 14 13 11 13 9 8 15 16 12 11 11 11 10 10 10
8 11 6 9 11 12 11 12 8 10 12 14 13 15 18 15 12 11 7 8 14 19 16 15 13 10 11 13 10 14 14 14 12 12 15 17 15 12 12 12 11 11 11
8 4 9 7 9 8 7 9 8 10 13 9 10 19 21 20 17 14 11 11 13 15 11 14 14 15 11 11 14 13 15 15 14 14 14 18 17 15 13 13 13 12 12
12 9 3 2 2 6 4 4 6 8 8 6 8 9 19 21 22 14 12 10 16 15 10 10 10 10 10 9 9 12 12 15 17 17 16 18 20 18 16 15 15 14 12
13 12 9 5 2 3 5 3 4 5 6 6 6 6 13 16 20 16 10 10 16 9 8 10 10 10 10 10 9 9 10 11 12 17 17 17 21 20 20 20 17 17 16
11 12 11 9 6 1 2 4 4 4 5 6 5 5 8 10 16 15 11 11 14 10 11 11 12 11 10 9 11 11 10 9 10 10 13 19 22 21 21 23 21 20 20
11 11 10 9 9 7 3 2 4 5 6 6 9 12 14 15 16 12 10 12 13 12 14 13 12 13 12 11 10 9 9 11 11 11 11 12 15 21 19 20 20 20 21
9 9 9 9 9 8 6 3 4 6 6 6 7 6 9 10 14 10 12 13 15 13 14 15 17 12 12 11 11 9 9 10 12 11 10 11 14 17 18 21 22 22 22
8 7 8 8 8 7 8 5 5 4 3 4 4 6 7 11 15 15 15 14 14 12 13 16 16 19 13 13 17 10 7 10 11 11 14 12 13 11 12 20 21 21 22
7 7 8 8 7 6 7 6 7 6 6 5 6 5 7 7 4 7 10 15 16 12 14 14 14 15 16 15 12 16 16 6 8 8 12 14 13 14 13 10 16 18 21
6 6 6 8 8 7 7 7 7 7 7 6 5 7 8 7 8 8 9 9 11 11 15 15 14 16 14 14 13 16 19 10 4 4 10 12 12 12 11 10 12 15 18
3 6 7 10 11 9 9 9 8 9 9 8 7 7 6 7 6 8 9 9 8 8 13 13 17 20 18 17 15 15 11 13 5 4 4 12 14 11 9 10 10 14 18
Wind_Direction
129 138 143 138 132 130 136 139 137 137 138 138 134 133 128 125 121 120 121 124 127 122 125 128 126 122 117 108 101 97 91 89 89 90 88 82 80 81 64 22 148 79 65
135 142 139 133 128 127 134 135 139 142 141 140 137 133 129 128 128 126 125 126 127 132 134 133 128 124 120 120 114 108 104 104 110 118 119 103 78 94 70 57 66 85 80
145 142 158 138 134 136 147 140 140 145 143 141 139 137 137 134 134 134 135 135 137 141 142 142 142 133 127 127 120 117 117 119 134 163 186 80 82 95 89 88 93 99 96
157 143 166 141 137 140 149 150 147 150 149 146 144 145 143 140 140 142 143 144 146 148 148 150 150 145 137 134 126 124 129 142 182 215 205 109 99 88 104 99 100 103 100
152 147 154 144 142 144 146 150 152 150 151 148 148 147 147 147 148 150 150 151 153 156 157 158 157 151 139 136 133 136 145 178 227 240 106 113 123 80 77 110 105 75 84
143 148 135 151 153 146 147 149 152 150 150 149 149 150 152 153 154 153 154 157 159 162 164 165 163 156 143 144 145 152 167 202 245 74 79 78 80 84 73 73 87 80 80
135 131 146 151 152 148 148 148 150 152 148 150 153 155 156 158 157 156 162 166 162 178 168 165 161 166 151 150 152 166 200 232 265 109 134 101 100 93 78 68 87 94 85
137 143 149 154 163 166 160 162 165 165 160 159 161 161 161 164 162 161 167 175 188 185 164 162 174 170 162 156 160 177 212 254 243 187 132 101 107 111 100 91 82 101 98
147 156 155 173 182 178 176 176 178 176 171 169 170 171 170 172 174 172 178 179 177 182 165 175 176 176 162 168 173 183 220 264 287 170 143 121 122 124 116 113 106 99 107
165 166 157 178 184 190 191 185 184 184 182 178 176 177 178 179 184 180 170 157 166 175 184 177 177 181 161 163 179 185 212 254 265 160 138 107 133 137 131 125 122 134 129
178 179 172 177 189 201 195 189 188 188 187 185 184 186 183 192 189 180 193 169 171 174 186 178 176 170 162 165 179 192 215 234 176 223 101 124 143 147 135 127 121 116 122
185 186 184 184 191 205 210 185 199 199 201 202 202 196 207 209 195 189 174 164 169 176 184 170 167 166 178 185 192 210 224 251 239 217 113 131 157 150 152 144 135 125 118
181 182 189 188 196 182 228 195 190 207 205 206 207 204 211 213 196 203 159 165 176 181 196 178 180 196 201 198 193 208 230 220 239 222 125 136 167 164 156 153 146 138 132
196 172 185 191 187 185 207 218 206 205 199 206 210 209 203 219 192 211 182 171 185 196 220 198 194 209 209 218 210 204 231 224 217 185 136 147 169 173 170 162 156 150 142
290 240 193 195 188 176 215 211 217 221 206 210 212 203 221 200 199 197 206 206 199 207 204 208 214 204 209 214 222 216 216 225 224 214 150 160 170 180 178 171 166 160 150
347 321 213 199 204 201 193 225 208 234 232 212 214 201 212 210 217 210 210 211 242 226 197 209 222 203 210 204 210 217 219 220 214 215 157 166 173 184 181 180 178 170 159
1 338 290 202 195 217 218 182 233 233 229 237 215 183 195 223 219 221 207 218 233 227 201 207 224 220 213 206 195 205 213 214 218 216 185 167 179 181 183 184 181 179 167
18 36 352 40 158 144 244 238 226 247 250 235 252 184 195 208 239 230 227 216 228 239 206 209 219 214 216 214 208 199 204 207 209 206 216 175 180 186 182 181 176 179 178
38 44 43 47 55 193 188 215 264 288 302 311 255 249 179 197 217 240 249 245 228 237 216 217 222 215 218 214 206 209 208 209 203 203 208 201 175 191 186 171 177 180 182
43 50 54 45 24 318 250 232 260 262 260 268 267 243 228 194 208 227 238 238 226 220 220 219 221 214 223 212 219 202 209 216 215 210 209 209 179 199 193 175 180 189 187
40 41 42 43 25 26 360 305 270 263 255 249 250 245 221 222 212 217 235 232 233 228 221 205 216 220 214 205 212 209 217 221 220 208 211 206 202 189 198 176 188 192 189
41 24 23 23 21 9 6 328 288 309 299 297 289 272 249 228 229 223 226 228 233 231 222 221 201 213 221 204 207 197 211 219 223 219 211 209 207 192 190 187 198 199 183
41 29 23 14 21 15 351 344 333 276 263 280 308 314 290 276 243 223 221 223 226 228 223 217 211 200 206 213 202 181 200 224 200 213 217 209 206 199 195 191 198 206 190
25 7 359 359 0 7 351 339 338 317 310 329 292 282 285 283 278 269 253 234 227 227 231 222 210 212 213 211 211 223 231 193 192 189 206 210 206 193 201 194 194 201 201
16 346 330 320 313 321 323 325 318 317 317 313 313 313 295 291 285 275 270 256 256 246 236 221 216 217 216 225 217 225 217 250 230 167 187 196 211 196 196 191 193 198 202
36 344 329 314 307 301 294 293 292 296 303 305 305 298 306 306 309 320 322 324 302 281 247 231 211 217 217 221 223 214 226 218 205 190 143 195 203 192 191 189 183 199 195